Miscellaneous Local Product
Issued by NWS North Platte, NE

Home | Current Version | Previous Version | Text Only | Print | Product List | Glossary On
Versions: 1 2 3 4 5 6 7 8 9 10 11 12 13 14 15 16 17 18 19 20 21 22 23 24 25 26 27 28 29 30 31 32 33 34 35 36 37 38 39 40 41 42 43 44 45 46 47 48 49 50
000
AXUS43 KLBF 130110
MISLBF


WESTERN AND NORTH CENTRAL NEBRASKA HOURLY WEATHER ROUNDUP
NATIONAL WEATHER SERVICE NORTH PLATTE NE
800 PM CDT SAT JUL 12 2014

***STATIONS NOT REPORTING VARIABLES SUCH AS SKY/WEATHER OR
PRESSURE ARE PROVIDED BY THE NEBRASKA DEPARTMENT OF
ROADS...RAWS...AND APRS NETWORKS...AND ARE NOT UNDER
NATIONAL WEATHER SERVICE QUALITY CONTROL***

...OBSERVATIONS IN AND NEAR THE EASTERN PANHANDLE OF NEBRASKA...

CITY           SKY/WX    TMP DP  RH WIND       PRES   REMARKS
PINE RIDGE     PTSUNNY   72  65  78 NW8       30.17R
CHADRON        MOSUNNY   78  57  48 NE18      30.16R
ALLIANCE       SUNNY     81  58  45 N6        30.18S
SIDNEY         MOSUNNY   80  58  46 NE10      30.23R
WHITECLAY        N/A     71  64  76 E7          N/A
RUSHVILLE        N/A     79  66  64 NE14        N/A
GORDON           N/A     83  62  49 N10         N/A
CRESCENT LAKE    N/A     80  57  44 NE6G13      N/A
LISCO            N/A     86  56  36 N3          N/A
$$

...OBSERVATIONS IN NORTH CENTRAL NEBRASKA...

CITY           SKY/WX    TMP DP  RH WIND       PRES   REMARKS
VALENTINE      SUNNY     80  62  54 N9        30.11S
THEDFORD       SUNNY     82  61  50 N8        30.13R
AINSWORTH      SUNNY     78  64  60 N8        30.10S
O`NEILL        SUNNY     79  62  55 CALM      30.07S
ORD            SUNNY     79  69  71 CALM      30.05S
BROKEN BOW     SUNNY     79  69  71 NE9       30.08S
BROWNLEE         N/A     85  58  40 N9          N/A
SPRINGVIEW       N/A     82  67  59 NW5         N/A
ROSE             N/A     83  70  64 CALM        N/A
NEWPORT          N/A     78  71  79 E3          N/A
SARGENT          N/A     80  66  61 CALM        N/A
COMSTOCK         N/A     83  74  73 CALM        N/A  HX  90
CHAMBERS         N/A     87  61  41 NE3         N/A
$$

...OBSERVATIONS IN SOUTHWEST NEBRASKA AND FAR NORTHEAST COLORADO...

CITY           SKY/WX    TMP DP  RH WIND       PRES   REMARKS
WRAY             N/A     81  63  54 NE13      30.15R
HOLYOKE        CLOUDY    81  61  50 NE5       30.16S
IMPERIAL       CLOUDY    81  62  52 NE9       30.13R
OGALLALA       SUNNY     81  61  51 NE7       30.14R
NORTH PLATTE   MOSUNNY   80  63  55 E8        30.09S
MCCOOK         SUNNY     81  67  62 NE14      30.07R
LEXINGTON      SUNNY     80  70  72 NE7       30.07R
SUTHERLAND       N/A     86  67  52 NE7         N/A
BRADY            N/A     81  65  57 CALM        N/A
GOTHENBURG       N/A     82  63  51 NE5         N/A
CALLAWAY         N/A     80  72  75 CALM        N/A
$$

...NORTH PLATTE AREA...

CITY           SKY/WX    TMP DP  RH WIND       PRES   REMARKS
AIRPORT        MOSUNNY   80  63  55 E8        30.09S
INDIAN HILLS     N/A     84  65  52 CALM        N/A
$$

...SOME WEATHER OBSERVATIONS FROM AROUND THE REGION...

CITY           SKY/WX    TMP DP  RH WIND       PRES   REMARKS
DENVER         CLOUDY    67  62  84 S3        30.28F
LARAMIE        MOSUNNY   71  47  42 E10       30.39R
CHEYENNE       MOSUNNY   76  49  38 N8        30.33S
SCOTTSBLUFF    SUNNY     81  62  52 S8        30.18S
RAPID CITY     PTSUNNY   79  62  56 N5        30.16R
PIERRE         SUNNY     78  64  61 NW6       30.04F
WINNER         FAIR      81  63  54 N10       30.07R
SIOUX FALLS    MOSUNNY   78  66  66 N7        30.01S
OMAHA          MOCLDY    79  69  71 N14       29.96R
GRAND ISLAND   SUNNY     78  68  71 N8        30.03S
KANSAS CITY    PTCLDY    85  70  60 S10       29.95S
WICHITA        PTCLDY    88  64  44 S9        29.97F
HAYS           PTSUNNY   79  66  65 NW9       30.00R THUNDER
LIBERAL        SUNNY     91  55  29 S15       30.02S
GOODLAND       SUNNY     81  63  54 N10       30.12S
$$



USA.gov is the U.S. government's official web portal to all federal, state and local government web resources and services.